Regional Weather Roundup
Issued by NWS

Home | Current Version | Previous Version | Graphics & Text | Print | Product List | Glossary On
Versions: 1 2 3 4 5 6 7 8 9 10 11 12 13 14 15 16 17 18 19 20 21 22 23 24 25 26 27 28 29 30 31 32 33 34 35 36 37 38 39 40 41 42 43 44 45 46 47 48 49 50
025
ASUS44 KLIX 211405
RWRLA
LOUISIANA WEATHER ROUNDUP
NATIONAL WEATHER SERVICE NEW ORLEANS LA
800 AM CST FRI NOV 21 2014

NOTE: "FAIR" INDICATES FEW OR NO CLOUDS BELOW 12,000 FEET WITH NO
      SIGNIFICANT WEATHER AND/OR OBSTRUCTIONS TO VISIBILITY.
      SKY/WX - SKY CONDITION AND SIGNIFICANT WEATHER.
      TMP - AIR TEMPERATURE.    DP   - DEWPOINT TEMPERATURE.
      RH  - RELATIVE HUMIDITY.  PRES - PRESSURE.
      HX  - HEAT INDEX.         WCI  - WIND CHILL INDEX.

*  THESE STATIONS ARE NOT NWS OR FAA STATIONS AND ARE NOT UNDER
   NWS QUALITY CONTROL.

LAZ040-048-061>063-065-066-069-211500-
SOUTHEAST LOUISIANA

CITY           SKY/WX    TMP DP  RH WIND       PRES   REMARKS
N.O. AUDUBON     N/A     58  49  72 MISG        N/A
N.O. INTL ARPT MOSUNNY   57  47  69 E7        30.29R
N.O. LAKEFRONT SUNNY     56  49  77 E7        30.30R
N.O. DOWNTOWN* FAIR      59  45  58 SE3       30.29S
SLIDELL        SUNNY     47  43  86 CALM      30.31R
BATON ROUGE    PTSUNNY   52  47  83 E3        30.29R
BOOTHVILLE     SUNNY     59  52  77 E3        30.30R
BELLE CHASSE   MOSUNNY   57  48  72 E8        30.29R
BOGALUSA*        N/A     47  43  87 CALM      30.33R
NEW ROADS*     CLOUDY    53  48  83 E6        30.28R
GONZALES*      FAIR      52  51  98 CALM      30.28R
HAMMOND*       MOSUNNY   50  45  81 CALM      30.31S
HOUMA*         SUNNY     54  50  87 CALM      30.27R
PORT FOURCHON* SUNNY     64  52  63 E8        30.31R

$$

LAZ041-044-053-054-211500-
SOUTHWEST LOUISIANA

CITY           SKY/WX    TMP DP  RH WIND       PRES   REMARKS
LAKE CHARLES   CLOUDY    61  53  75 E12       30.21R
LAFAYETTE      CLOUDY    58  51  78 SE5       30.25R
PATTERSON      CLOUDY    61  52  72 E6        30.29R
SALT POINT       N/A     62  52  69 E6        30.25R
NEW IBERIA     CLOUDY    60  52  74 SE7       30.26R
CHENAULT AIRPK CLOUDY    61  54  77 SE8       30.23

$$

LAZ027-028-211500-
CENTRAL LOUISIANA

CITY           SKY/WX    TMP DP  RH WIND       PRES   REMARKS
FORT POLK      CLOUDY    55  53  92 SE5       30.23R
ALEXANDRIA INT CLOUDY    56  51  84 SE8       30.23R
ALEXANDRIA     CLOUDY    54  50  86 E3        30.25R

$$

LAZ001-002-211500-
NORTHWEST LOUISIANA

CITY           SKY/WX    TMP DP  RH WIND       PRES   REMARKS
SHREVEPORT     LGT RAIN  55  54  96 S10       30.20R
BARKSDALE AFB  LGT RAIN  54  54 100 SE12      30.21R FOG
DTN SHREVEPORT LGT RAIN  53  51  93 SE13      30.20R FOG

$$

LAZ014-016-211500-
NORTHEAST LOUISIANA

CITY           SKY/WX    TMP DP  RH WIND       PRES   REMARKS
MONROE         CLOUDY    53  49  86 S5        30.27R
TALLULAH       PTSUNNY   51  47  86 SE6       30.29R

$$




USA.gov is the U.S. government's official web portal to all federal, state and local government web resources and services.